Flag for American Samoa Weather past 2 weeks in Pago Pago, American Samoa

Now
79 °F

Cloudy.


Feels Like: 84 °F
Forecast: 76 / 86 °F
Wind: 5 mph from North

Location: Pago Pago / Int. Airp.

Current Time: Mar 30, 2015 at 7:32:34 AM

Latest Report: Mar 30, 2015 at 6:50 AM


Visibility: 10 mi

Pressure: 29.87 "Hg

Humidity: 89%

Dew point: 76 °F

Location of Pago PagoLocation

Historic Weather in Pago Pago — Graph

°F

Pago Pago temperature yesterday

Maximum temperature yesterday: 86 °F (at 11:53 AM)
Minimum temperature yesterday: 77 °F (at 4:51 AM)
Average temperature yesterday: 81 °F

Past Weeks' High & Low Weather Summary

 TemperatureHumidityPressure
High90 °F (Mar 23, 1:58 PM)96% (Mar 27, 12:56 AM)29.91 "Hg (Mar 27, 12:56 AM)
Low73 °F (Mar 27, 1:50 AM)66% (Mar 16, 3:50 PM)29.64 "Hg (Mar 21, 3:52 PM)
Average82 °F83%29.78 "Hg
* Reported Mar 15 5:55 AM — Mar 30 5:50 AM, Pago Pago, Weather by CustomWeather, © 2015

Note: Actual official high and low records may vary slightly from our data, if they occured in-between our weather recording intervals... More about our weather records

Advertising

Pago Pago weather history for previous 24 hours

 ConditionsComfort  
Time TempWeatherWind HumidityBarometerVisibility
5:50 AM
Mon, Mar 30
78 °FOvercast.6 mph91%29.85 "Hg10 mi
3:50 AM77 °FOvercast.No wind94%29.83 "Hg10 mi
2:50 AM78 °FSprinkles. Overcast.3 mph94%29.83 "Hg8 mi
12:50 AM80 °FOvercast.5 mph89%29.86 "Hg10 mi
11:50 PM
Sun, Mar 29
81 °FOvercast.6 mph89%29.88 "Hg10 mi
10:50 PM79 °FSprinkles. Overcast.10 mph93%29.89 "Hg7 mi
9:51 PM79 °FPartly cloudy.No wind93%29.90 "Hg10 mi
8:54 PM78 °FPartly cloudy.2 mph94%29.88 "Hg10 mi
7:57 PM78 °FOvercast.2 mph92%29.87 "Hg10 mi
6:50 PM78 °FOvercast.5 mph93%29.84 "Hg10 mi
5:54 PM78 °FSprinkles. Cloudy.3 mph93%29.83 "Hg7 mi
4:51 PM80 °FSprinkles. Broken clouds.6 mph87%29.81 "Hg12 mi
3:53 PM84 °FSprinkles. Broken clouds.5 mph76%29.80 "Hg12 mi
2:52 PM85 °FBroken clouds.No wind74%29.80 "Hg12 mi
1:56 PM84 °FScattered showers. Broken clouds.5 mph75%29.82 "Hg11 mi
12:55 PM85 °FPartly sunny.5 mph76%29.83 "Hg12 mi
11:53 AM86 °FScattered clouds.5 mph74%29.86 "Hg12 mi
10:51 AM86 °FScattered clouds.6 mph73%29.88 "Hg12 mi
8:55 AM82 °FBroken clouds.No wind85%29.91 "Hg11 mi
7:53 AM80 °FSprinkles. Broken clouds.3 mph92%29.89 "Hg11 mi
Weather by CustomWeather, © 2015

See weather overviewHow to use our weather pages